This is the latest recevied weather packets stored in our database for station/object EW2905. If no packets are shown the sender has not sent any weather packets the latest 10 day(s).
| Time | Temp. | Humidity | Pressure | Rain* | Wind** | Luminosity | Snow |
|---|---|---|---|---|---|---|---|
| 1777832496 | 14.44° C | 74% | 1021.4 hPa | 0 mm | - | - | - |
| 1777832316 | 14.44° C | 73% | 1021.4 hPa | 0 mm | - | - | - |
| 1777832135 | 15° C | 73% | 1021.4 hPa | 0 mm | - | - | - |
| 1777831955 | 15° C | 72% | 1021.4 hPa | 0 mm | - | - | - |
| 1777831595 | 15.56° C | 72% | 1021.4 hPa | 0 mm | - | - | - |
| 1777831416 | 15.56° C | 72% | 1021.4 hPa | 0 mm | - | - | - |
| 1777831236 | 15.56° C | 71% | 1021.4 hPa | 0 mm | - | - | - |
| 1777831056 | 16.11° C | 69% | 1021.4 hPa | 0 mm | - | - | - |
| 1777830875 | 16.67° C | 69% | 1021.4 hPa | 0 mm | - | - | - |
| 1777830696 | 16.67° C | 67% | 1021.4 hPa | 0 mm | - | - | - |
| 1777830516 | 16.67° C | 67% | 1021.4 hPa | 0 mm | - | - | - |
| 1777830336 | 17.22° C | 66% | 1021.4 hPa | 0 mm | - | - | - |
| 1777830156 | 17.22° C | 65% | 1021.4 hPa | 0 mm | - | - | - |
| 1777829976 | 17.78° C | 64% | 1021.4 hPa | 0 mm | - | - | - |
| 1777829795 | 17.78° C | 63% | 1021.4 hPa | 0 mm | - | - | - |
| 1777829615 | 17.78° C | 60% | 1021.4 hPa | 0 mm | - | - | - |
| 1777829435 | 18.33° C | 63% | 1021.4 hPa | 0 mm | - | - | - |
| 1777829256 | 18.89° C | 54% | 1021.4 hPa | 0 mm | - | - | - |
| 1777829075 | 18.89° C | 59% | 1021.4 hPa | 0 mm | - | - | - |
| 1777828896 | 18.89° C | 58% | 1021.4 hPa | 0 mm | - | - | - |
| 1777828716 | 19.44° C | 55% | 1021.4 hPa | 0 mm | - | - | - |
| 1777828536 | 20° C | 54% | 1021.4 hPa | 0 mm | - | - | - |
| 1777828356 | 21.11° C | 52% | 1021.4 hPa | 0 mm | - | - | - |
| 1777828175 | 21.11° C | 52% | 1021.4 hPa | 0 mm | - | - | - |
| 1777827996 | 21.67° C | 53% | 1021.4 hPa | 0 mm | - | - | - |
* Rain latest hour (hover to see other rain measurements)
** Current wind speed in m/s (hover to see current wind gust speed)